CW8593 Weather Reports


Display with metric or nautical units.
time (UTC)temp
F
wind
direction
speed
MPH
gust
MPH
rain 1hr
in
rain 24hr
in
rain mn
in
humidity
%
barometer
mb
20140424101124 69 160 4.0 10.0 0.00 0.00 0.00 55 1017.4
20140424094123 69 130 4.0 8.0 0.00 0.00 0.00 56 1017.7
20140424093124 70 150 2.0 8.0 0.00 0.00 0.00 55 1017.7
20140424091124 70 142 2.0 8.0 0.00 0.00 0.00 56 1017.7
20140424090125 69 131 0.0 6.0 0.00 0.00 0.00 56 1017.7
20140424084124 69 142 0.0 3.0 0.00 0.00 0.00 55 1017.9
20140424083124 69 142 1.0 5.0 0.00 0.00 0.00 54 1017.9
20140424081126 68 219 1.0 3.0 0.00 0.00 0.00 56 1018.1
20140424080125 69 220 0.0 3.0 0.00 0.00 0.00 56 1018.1
20140424073124 66 220 0.0 3.0 0.00 0.00 0.00 62 1018.0
20140424071124 65 220 0.0 1.0 0.00 0.00 0.00 62 1018.2
20140424070125 64 219 0.0 1.0 0.00 0.00 0.00 63 1018.2
20140424064124 64 220 0.0 0.0 0.00 0.00 0.00 67 1018.3
20140424063124 62 220 0.0 0.0 0.00 0.00 0.00 70 1018.2
20140424050123 58 220 0.0 0.0 0.00 0.00 0.00 71 1018.0
20140424043123 58 219 0.0 3.0 0.00 0.00 0.00 70 1018.0
20140424041125 59 219 0.0 2.0 0.00 0.00 0.00 67 1018.2
20140424040124 59 219 0.0 3.0 0.00 0.00 0.00 67 1018.1
20140424034124 60 219 2.0 3.0 0.00 0.00 0.00 66 1018.1
20140424033124 60 219 1.0 3.0 0.00 0.00 0.00 66 1018.1
20140424024124 59 207 1.0 3.0 0.00 0.01 0.00 68 1018.2
20140424014124 58 201 0.0 0.0 0.00 0.01 0.00 70 1018.5
20140424013124 58 202 0.0 0.0 0.00 0.01 0.00 70 1018.5
20140424004123 59 202 0.0 0.0 0.00 0.01 0.00 68 1018.8
20140424001124 59 160 3.0 3.0 0.00 0.01 0.00 66 1019.0
20140424000123 59 161 2.0 3.0 0.00 0.01 0.00 68 1019.2
20140423234123 60 161 0.0 0.0 0.00 0.01 0.00 67 1019.2
20140423231124 60 161 0.0 0.0 0.00 0.01 0.00 66 1019.3
20140423230125 61 161 0.0 0.0 0.00 0.01 0.00 65 1019.2
20140423224124 62 161 0.0 2.0 0.00 0.01 0.01 64 1019.3
20140423221124 64 161 1.0 2.0 0.00 0.01 0.01 61 1019.1
20140423213123 64 193 0.0 8.0 0.00 0.01 0.01 59 1018.9
20140423211125 64 261 2.0 6.0 0.00 0.01 0.01 58 1018.9
20140423204124 64 241 4.0 9.0 0.00 0.01 0.01 59 1018.7
20140423194124 64 193 1.0 3.0 0.00 0.01 0.01 68 1018.3
20140423193123 64 192 1.0 3.0 0.00 0.01 0.01 67 1018.0
20140423191123 64 193 0.0 3.0 0.00 0.01 0.01 66 1017.7
20140423183124 65 184 5.0 12.0 0.00 0.01 0.01 72 1017.4
20140423181126 67 188 7.0 10.0 0.00 0.01 0.01 63 1017.1
20140423180123 68 242 6.0 12.0 0.00 0.01 0.01 54 1016.6
20140423173126 68 171 4.0 12.0 0.00 0.01 0.01 63 1016.6
20140423171123 69 213 2.0 12.0 0.00 0.01 0.01 61 1016.7
20140423170123 69 226 7.0 16.0 0.00 0.01 0.01 54 1016.7
20140423164124 70 234 8.0 17.0 0.00 0.01 0.01 56 1016.7
20140423161123 69 210 3.0 12.0 0.00 0.01 0.01 64 1017.0
20140423160123 68 204 8.0 20.0 0.00 0.01 0.01 64 1017.0
20140423154125 68 216 6.0 16.0 0.00 0.01 0.01 64 1017.0
20140423151123 69 202 6.0 13.0 0.00 0.01 0.01 63 1017.0
20140423150123 69 219 7.0 17.0 0.00 0.01 0.01 62 1017.1
20140423143127 68 218 7.0 18.0 0.00 0.01 0.01 66 1017.3
20140423134123 69 212 3.0 14.0 0.00 0.01 0.01 67 1017.4
20140423133124 68 181 8.0 17.0 0.00 0.01 0.01 69 1017.5
20140423131124 67 172 10.0 18.0 0.00 0.01 0.01 71 1017.7
20140423130123 66 181 11.0 22.0 0.00 0.01 0.01 70 1017.7
20140423124123 66 170 10.0 20.0 0.00 0.01 0.01 73 1017.9
20140423114126 66 163 8.0 20.0 0.00 0.01 0.01 67 1018.2
20140423110122 65 183 13.0 21.0 0.00 0.18 0.01 67 1018.4